Lid_Strength_Index
7 10 11 10 9 9 10 11 11 10 10 10 10 10 8 7 7 7 7 6 6 5 5 4 4 3 1 1 1 1 1 0 0 1 1 1 1 1 0 -0 1 -0 -0 -0
9 11 9 8 8 10 10 11 11 11 10 10 10 10 8 7 7 7 7 6 6 5 5 5 5 4 4 3 1 1 1 1 1 1 1 1 1 0 -0 0 1 1 0 -0
10 9 8 9 10 11 11 11 11 12 11 10 11 11 10 8 7 7 6 6 5 5 5 5 5 5 4 4 3 2 1 1 0 0 0 0 1 1 2 1 2 2 1 2
9 9 9 10 11 10 12 10 10 11 12 14 11 15 10 9 9 9 8 7 6 6 6 6 6 5 5 4 3 4 2 0 0 0 1 1 2 3 1 1 0 1 2 2
10 10 10 10 10 9 11 9 10 11 12 12 12 14 12 11 11 9 8 7 7 6 6 6 6 5 5 4 3 4 4 3 0 0 1 1 2 1 1 1 1 2 2 1
10 9 8 9 10 9 9 10 10 10 11 16 13 13 13 12 10 9 8 8 7 7 6 6 6 5 4 3 2 4 5 4 1 0 1 1 2 2 2 1 1 1 1 1
11 11 9 9 10 9 9 11 14 15 16 17 13 14 13 9 10 9 9 8 7 7 6 6 6 6 5 4 2 3 5 3 1 1 1 1 1 1 2 2 1 2 2 2
13 15 11 9 10 11 11 11 13 18 17 15 15 15 13 9 9 9 9 8 7 7 7 7 6 6 6 5 3 2 3 3 2 1 1 1 1 1 1 1 1 1 2 2
13 13 9 9 9 9 11 13 10 15 16 15 14 13 10 9 10 9 9 8 7 7 7 7 7 6 6 5 5 3 3 3 2 1 1 1 1 2 2 2 2 2 2 3
10 13 11 10 9 9 10 9 14 13 18 18 16 14 14 12 11 10 9 9 8 7 7 7 7 6 6 6 5 5 4 3 4 3 3 3 3 3 4 4 5 5 5 5
9 11 12 10 12 12 12 12 11 11 12 15 17 15 10 9 9 10 9 8 7 8 8 7 7 7 7 6 6 6 5 5 4 4 4 5 5 6 5 5 5 5 5 5
10 11 13 13 9 8 9 11 11 13 15 13 13 13 9 10 9 7 8 8 7 7 7 7 7 7 7 7 7 7 7 7 6 6 6 6 6 5 6 6 6 6 6 5
10 12 16 15 12 11 12 10 10 10 11 13 15 14 8 9 9 7 7 8 8 8 8 8 8 8 8 8 8 8 8 8 7 7 7 8 8 8 8 8 8 8 7 7
9 11 14 16 14 11 13 12 11 11 13 13 13 12 10 10 9 8 8 8 8 8 8 8 8 8 8 8 8 8 8 8 8 8 8 9 9 9 9 9 9 9 8 9
9 14 12 12 12 11 11 12 11 12 12 13 13 12 11 9 9 8 7 8 8 8 8 8 8 8 8 9 9 9 9 9 9 10 10 11 11 11 11 11 11 10 10 10
9 15 11 14 11 11 13 12 11 12 12 11 12 11 9 7 7 8 8 8 8 8 8 8 8 8 9 9 10 10 11 11 11 12 13 12 13 13 13 13 13 12 12 12
11 13 14 15 12 12 15 13 12 11 10 11 13 11 9 9 8 8 8 8 8 8 8 8 9 9 10 11 10 11 12 12 12 13 14 14 14 15 14 14 14 14 14 14
12 13 14 16 15 20 12 9 9 10 10 9 9 9 9 8 7 7 6 8 8 8 8 8 9 10 11 11 12 12 13 14 14 14 15 16 16 16 16 16 16 15 15 15
10 12 15 17 17 13 11 10 10 11 11 9 9 9 8 8 7 8 6 6 7 7 8 9 10 11 12 13 13 14 15 15 16 17 17 17 18 18 18 17 17 16 16 16
10 10 14 15 18 19 11 10 7 8 14 8 8 9 8 9 12 10 7 7 7 8 10 12 13 14 14 15 15 16 17 18 19 19 19 19 19 19 19 18 18 17 17 16
14 13 15 15 17 15 11 11 9 15 13 12 11 10 9 9 8 7 7 8 9 12 13 14 15 16 17 16 17 18 19 20 20 20 20 20 20 20 19 19 19 18 18 17
14 15 15 15 17 18 10 10 12 11 10 11 10 10 11 9 10 9 10 12 13 15 15 16 18 19 19 18 18 19 21 21 21 22 21 22 21 21 20 21 20 19 19 18
14 11 13 13 13 8 9 8 8 10 11 10 11 11 10 11 11 12 13 14 15 16 17 18 19 21 21 21 19 21 22 22 23 23 23 22 22 21 21 21 20 19 19 19
10 9 11 11 9 8 7 8 9 9 10 11 11 11 10 11 13 14 15 17 17 18 18 19 20 22 23 23 23 23 23 24 24 23 23 22 22 22 21 20 20 20 20 19
9 9 10 11 8 8 7 9 9 10 12 12 12 12 11 12 14 15 17 18 18 19 19 19 20 22 23 23 24 24 25 25 24 23 22 22 22 22 21 20 20 20 19 19
9 10 10 11 8 8 8 9 9 10 11 12 12 13 13 13 14 15 17 18 19 20 20 21 22 23 24 24 25 26 26 26 25 23 23 23 23 22 22 21 21 18 18 17